Погода в Новошахтинском

Россия / Приморский край     44°01′36″N   132°10′01″E
темп.,
°C
ветер,
м/с
пор.,
м/с
влажн.,
%
обл.,
%
осадки,
мм/ч
давл.,
гПа
погр.,
м
12 мая, ср
ср1201:00+6ююз49936 0.0 1019266
04:00+5ююв249577 0.0 1019110
07:00+6ю249099 0.0 1018165
10:00+12ююз8136353 0.0 10161080
13:00+14ююз101556100 0.0 10151316
16:00+12ююз101767100 0.0 10141378
19:00+10ююз81684100 1.4 10131086
22:00+10ююз817844 1.4 1014817
13 мая, чт
чт1301:00+10ююз91883100 0.0 1013699
04:00+9ююз71784100 0.0 1013639
07:00+10ююз8168539 0.0 1013603
10:00+14ююз101473100 0.0 1013743
13:00+17ююз9106299 0.0 1012770
16:00+18ююз7858100 0.0 1011676
19:00+15ююз6107070 0.0 1011402
22:00+11ююз4107598 0.0 1013287
14 мая, пт
пт1401:00+9ю378310 0.0 1013129
04:00+8ю228811 0.0 101324
07:00+9ююз248498 0.0 101394
10:00+17ююз466278 0.0 1013442
13:00+22ююз554785 0.0 1012987
16:00+20ю81054100 0.0 1011856
19:00+15ю71471100 0.0 1011579
22:00+14ю61679100 0.0 1012616
15 мая, сб
сб1501:00+13ю71684100 0.0 1010659
04:00+13ю71790100 0.8 1009721
07:00+13ююз81790100 0.0 1008610
10:00+17ююз9157510 0.0 1008627
13:00+20ююз91162100 0.0 1007731
16:00+18юз5772100 0.0 1007517
19:00+15ссз2485100 0.1 1008179
22:00+12св3684100 0.2 1011231
16 мая, вс
вс1601:00+11юв3587100 0.3 1010172
04:00+10юв1174100 0.3 100919
07:00+11юз117322 0.0 100929
10:00+16ссз235511 0.0 1008646
13:00+20с3542100 0.0 10071590
16:00+22св4637100 0.0 10052005
19:00+19вюв345838 0.0 1004101
22:00+14юв115822 0.0 100510